Regional Weather Roundup
Issued by NWS

Home | Current Version | Previous Version | Text Only | Print | Product List | Glossary On
Versions: 1 2 3 4 5 6 7 8 9 10 11 12 13 14 15 16 17 18 19 20 21 22 23 24 25 26 27 28 29 30 31 32 33 34 35 36 37 38 39 40 41 42 43 44 45 46 47 48 49 50
000
ASUS44 KOUN 181310
RWROK

WEATHER ROUNDUP FOR OKLAHOMA
NATIONAL WEATHER SERVICE NORMAN OK
800 AM CDT SAT APR 18 2015

NOTE: "FAIR" INDICATES FEW OR NO CLOUDS BELOW 12,000 FEET WITH NO
      SIGNIFICANT WEATHER AND/OR OBSTRUCTIONS TO VISIBILITY.

OKZ001>007-009>012-014-015-017-181400-
NORTHWEST OKLAHOMA AND THE PANHANDLE

CITY           SKY/WX    TMP DP  RH WIND       PRES   REMARKS
GAGE           PTSUNNY   57  55  93 S9        29.90S
GUYMON         PTCLDY    38  34  85 W6        29.91R WCI  33
$$

OKZ016-021>023-033>039-044-045-181400-
SOUTHWEST OKLAHOMA

CITY           SKY/WX    TMP DP  RH WIND       PRES   REMARKS
LAWTON/REGL    CLOUDY    60  57  89 CALM      29.91S
LAWTON/FT SILL CLOUDY    61  61 100 SW2       29.89F
FREDERICK      CLOUDY    59  58  96 S3        29.89S FOG
CLINTON        PTSUNNY   58  56  93 S8        29.92F FOG
HOBART         FOG       55  54  96 SE5       29.92S VSB 1/2
ALTUS AFB      CLOUDY    57  57 100 S2        29.90F
$$

OKZ018>020-024>031-181400-
CENTRAL OKLAHOMA

CITY           SKY/WX    TMP DP  RH WIND       PRES   REMARKS
OKLAHOMA CITY  MOSUNNY   58  53  84 CALM      29.91R
OKC/WILEY POST MOSUNNY   59  55  87 CALM      29.91R
OKC/TINKER AFB MOSUNNY   57  55  91 SE3       29.91R
STILLWATER     CLOUDY    60  58  92 E7        29.92R
GUTHRIE        PTSUNNY   59  58  96 E5        29.91R
$$

OKZ008-013-054>072-181400-
NORTHEAST OKLAHOMA

CITY           SKY/WX    TMP DP  RH WIND       PRES   REMARKS
TULSA          LGT RAIN  61  61 100 E3        29.94R
TULSA/JONES    LGT RAIN  61  60  97 CALM      29.94F
PONCA CITY     CLOUDY    61  59  93 E3        29.91R
BARTLESVILLE   LGT RAIN  60  60 100 S5        29.95R
MUSKOGEE       RAIN      62  60  93 NE6       29.95R FOG
$$

OKZ032-040>043-046>053-073>077-181400-
SOUTH CENTRAL/SOUTHEAST OKLAHOMA

CITY           SKY/WX    TMP DP  RH WIND       PRES   REMARKS
ARDMORE/DWNTWN SUNNY     61  59  94 CALM      29.89S
MCALESTER      CLOUDY    61  60  97 E6        29.93R
$$




USA.gov is the U.S. government's official web portal to all federal, state and local government web resources and services.